Location: Grasslands National Park East Block
(49.0708°N, 106.5295°W)
Time: 10:29:45
(UTC-06:00)

Vanguard 1 Rocket - Pass Details

Date: 26 September 2019
Orbit: 650 x 4226 km, 34.3° (Epoch: 13 October)

Event Time Altitude Azimuth Distance (km) Brightness Sun altitude
Rises 18:25:15 0° 244° (WSW) 8,468 14.0 4.2°
Reaches altitude 10° 18:31:39 10° 240° (WSW) 7,356 13.4 3.1°
Maximum altitude 18:53:52 48° 176° (S) 3,821 10.6 -0.5°
Drops below altitude 10° 19:07:16 10° 108° (ESE) 4,644 10.4 -2.7°
Enters shadow 19:09:34 - 103° (ESE) 5,114 10.6 -3.1°
Sets 19:10:15 0° 102° (ESE) 5,266 - -3.2°
